Home   Weather   Knarrevik/Straume   Past weeks

Flag for Norway Past Weather in Knarrevik/Straume, Norway — Yesterday and Last 2 Weeks

Now
49 °F

Overcast.


Feels Like: 46 °F
Forecast: 34 / 51 °F
Wind: 6 mph from South

Location: Bergen / Flesland

Current Time: Apr 29, 2017 at 7:59:49 pm

Latest Report: Apr 29, 2017 at 7:00 pm


Visibility: 28 mi

Pressure: 30.16 "Hg

Humidity: 41%

Dew Point: 26 °F

Location of Knarrevik/StraumeLocation

Past Weather in Knarrevik/Straume — Graph

°F

Knarrevik/Straume Temperature Yesterday

Maximum temperature yesterday: 49 °F (at 3:00 pm)
Minimum temperature yesterday: 37 °F (at 1:00 am)
Average temperature yesterday: 44 °F

High & Low Weather Summary for the Past Weeks

 TemperatureHumidityPressure
High52 °F (Apr 29, 5:00 pm)98% (Apr 20, 12:00 am)30.58 "Hg (Apr 20, 12:00 am)
Low32 °F (Apr 18, 1:00 am)31% (Apr 25, 6:00 pm)29.54 "Hg (Apr 24, 5:00 am)
Average40 °F75%29.98 "Hg
* Reported Apr 14 6:00 pm — Apr 29 6:00 pm, Knarrevik/Straume, Weather by CustomWeather, © 2017

Note: Actual official high and low records may vary slightly from our data, if they occured in-between our weather recording intervals... More about our weather records

Advertising

Knarrevik/Straume Weather History for the Previous 24 Hours

Scroll right to see more
 ConditionsComfort  
Time TempWeatherWind HumidityBarometerVisibility
6:00 pm
Sat, Apr 29
51 °FScattered clouds.5 mph40%30.15 "Hg28 mi
5:00 pm52 °FSunny.7 mph37%30.15 "Hg25 mi
4:00 pm51 °FSunny.7 mph40%30.15 "Hg25 mi
3:00 pm51 °FPartly sunny.7 mph39%30.16 "Hg22 mi
2:00 pm51 °FPartly sunny.7 mph40%30.15 "Hg25 mi
1:00 pm50 °FOvercast.7 mph44%30.14 "Hg31 mi
12:00 pm50 °FOvercast.7 mph45%30.14 "Hg25 mi
11:00 am48 °FOvercast.5 mph51%30.13 "Hg25 mi
10:00 am46 °FOvercast.5 mph49%30.11 "Hg31 mi
9:00 am46 °FOvercast.5 mph49%30.09 "Hg31 mi
8:00 am44 °FOvercast.1 mph59%30.08 "Hg31 mi
7:00 am42 °FOvercast.2 mph69%30.07 "Hg31 mi
6:00 am41 °FOvercast.2 mph68%30.05 "Hg31 mi
5:00 am42 °FOvercast.1 mph56%30.03 "Hg31 mi
4:00 am40 °FOvercast.2 mph72%30.01 "Hg31 mi
3:00 am40 °FOvercast.1 mph72%30.00 "Hg16 mi
2:00 am43 °FPassing clouds.2 mph53%30.00 "Hg31 mi
1:00 am43 °FClear.2 mph53%29.98 "Hg31 mi
12:00 am44 °FPassing clouds.2 mph52%29.98 "Hg31 mi
11:00 pm
Fri, Apr 28
45 °FClear.3 mph48%29.98 "Hg31 mi
10:00 pm46 °FPassing clouds.3 mph46%29.97 "Hg31 mi
9:00 pm46 °FPassing clouds.3 mph44%29.97 "Hg31 mi
8:00 pm47 °FOvercast.5 mph41%29.96 "Hg28 mi
7:00 pm49 °FPartly sunny.6 mph39%29.95 "Hg28 mi
Weather by CustomWeather, © 2017

See weather overviewHow to use our weather pages